Regional Weather Roundup
Issued by NWS

Home | Current Version | Previous Version | Text Only | Print | Product List | Glossary Off
Versions: 1 2 3 4 5 6 7 8 9 10 11 12 13 14 15 16 17 18 19 20 21 22 23 24 25 26 27 28 29 30 31 32 33 34 35 36 37 38 39 40 41 42 43 44 45 46 47 48 49 50

000
ASUS43 KLSX 011907
RWRMO

WEATHER SUMMARY FOR MISSOURI
NATIONAL WEATHER SERVICE SPRINGFIELD MO
200 PM CDT TUE SEP 01 2015

NOTE: "FAIR" INDICATES FEW OR NO CLOUDS BELOW 12,000 FEET WITH NO
       SIGNIFICANT WEATHER AND/OR OBSTRUCTIONS TO VISIBILITY.
       CURRENT SKY AND/OR WEATHER CONDITIONS ARE NOT AVAILABLE FOR
       CHILLICOTHE AND FARMINGTON.

MOZ001>031-035>038-043-044-053-054-012000-
...NORTHERN AND WESTERN MISSOURI...

CITY           SKY/WX    TMP DP  RH WIND       PRES   REMARKS
KANSAS CTY INT MOSUNNY   90  69  50 S12       30.01F HX  94
KANSAS C DTWN  SUNNY     90  67  46 SW15      30.01S HX  93
LEE`S SUMMIT   SUNNY     88  68  51 S12       30.04S HX  91
ST JOSEPH      MOSUNNY   88  70  55 S14       29.99S HX  93
CHILLICOTHE      N/A     90  70  51 S7        30.02S HX  95
KIRKSVILLE     SUNNY     89  68  49 SW12      30.04F HX  93

$$
MOZ066>068-077>081-088>096-101>105-012000-
...SOUTHWEST MISSOURI...

CITY           SKY/WX    TMP DP  RH WIND       PRES   REMARKS
SPRINGFIELD    MOSUNNY   87  66  49 S12       30.09S
JOPLIN         SUNNY     88  67  49 S15G21    30.06F HX  91

$$
MOZ032>034-039>042-045>050-055>058-069>072-012000-
...CENTRAL MISSOURI...

CITY           SKY/WX    TMP DP  RH WIND       PRES   REMARKS
COLUMBIA       SUNNY     89  70  53 VRB5      30.06F HX  94
JEFFERSON CITY SUNNY     90  66  45 S8        30.04F HX  92
ROLLA          MOSUNNY   88  67  49 S8        30.08F HX  91
SEDALIA        SUNNY     91  67  44 SW10      30.06F HX  94
WHITEMAN AFB   MOSUNNY   91  67  46 SW13      30.03F HX  94
WARRENSBURG    SUNNY     90  64  43 S10       30.04S HX  91
OSAGE BEACH    MOSUNNY   91  66  43 S6        30.08S HX  94

$$
MOZ051-052-059>065-012000-
...EAST CENTRAL MISSOURI...

CITY           SKY/WX    TMP DP  RH WIND       PRES   REMARKS
ST LOUIS INTL  MOSUNNY   93  67  42 S9        30.07F HX  96
SPIRIT OF STL  MOSUNNY   91  71  51 SW7       30.05F HX  97
ST CHARLES     MOSUNNY   90  70  51 S8        30.05F HX  95

$$
MOZ072>076-082>087-097>100-106>115-012000-
...SOUTH CENTRAL AND SOUTHEAST MISSOURI...

CITY           SKY/WX    TMP DP  RH WIND       PRES   REMARKS
CAPE GIRARDEAU PTSUNNY   87  70  56 E5        30.10S HX  92
FARMINGTON     MOSUNNY   86  72  62 S6        30.13F HX  92
POPLAR BLUFF   MOSUNNY   87  70  56 VRB3      30.09F HX  92
WEST PLAINS    PTSUNNY   84  66  54 SE8       30.13F

$$



USA.gov is the U.S. government's official web portal to all federal, state and local government web resources and services.